www.pogodaiklimat.ru

Погода и климат >> Архив погоды >> Пакистан >> Мохенджо-Даро


ПОГОДА в Мохенджо-Даро

  • Прогноз погоды в Мохенджо-Даро
  • Монитор погоды в Мохенджо-Даро

АРХИВ ПОГОДЫ в Мохенджо-Даро

Время (UTC), дата Ветер
(напр.,м/с)
 
Видим.   Явления Облачность Т
(С)
Тd
(С)
f
(%)
Тe
(С)
Тes
(С)
Комфортность P
(гПа)
Po
(гПа)
Тmin
(С)
Tmax
(С)
R
(мм)
R24
(мм)
S
(см)
03 14.05 Ю 1 4000 м ясно +30.5 +20.0 53 +37 +43 очень
душно
1000.0 994.2 +26.5
06 14.05 В 2 4000 м ясно +40.0 +17.3 27 +43 +62 опасность
перегрева
1000.8 994.6
12 14.05 ЮВ 2 4000 м ясно +42.5 +16.7 23 +45 +50 опасность
перегрева
998.3 992.8 +44.0
15 14.05 штиль 0 4000 м 9/4 1200 м
[Sc Ac trans]
+36.0 +18.7 36 +40 +40 очень
душно
999.1 992.8
18 14.05 СЗ 2 4000 м 8/4 1200 м
[Sc Ac trans]
+34.0 +18.9 41 +39 +39 очень
душно
1000.4 994.1
21 14.05 СЗ 7 4000 м 6/3 1200 м
[Sc Ac trans]
+31.5 +18.5 46 +36 +36 очень
душно
1000.8 994.4
00 15.05 ЮЗ 1 4000 м ясно +27.5 +19.0 60 +33 +33 очень
душно
1000.4 994.6
03 15.05 ЮЗ 2 4000 м ясно +29.0 +19.9 58 +35 +40 очень
душно
1002.6 996.8 +25.5
06 15.05 Ю 2 4000 м 3/0
[Ci fib]
+33.5 +20.1 45 +40 +58 опасность
солнечного
удара
1004.7 998.3
09 15.05 Ю 1 4000 м 8/0
[Ac trans Ci fib]
+37.0 +19.1 35 +42 +57 опасность
перегрева
1004.5 998.2
12 15.05 ЮВ 2 4000 м ясно +38.5 +19.2 33 +43 +48 опасность
перегрева
1002.2 996.6 +39.0
15 15.05 В 3 4000 м ясно +34.0 +18.9 41 +39 +39 очень
душно
1002.9 996.6
18 15.05 СВ 3 4000 м 4/0
[Ac trans]
+30.0 +18.5 50 +35 +35 очень
душно
1004.2 997.8
21 15.05 СЗ 2 4000 м слаб. дождь {гроза} 9/5 900 м
[Cb cap Ac lent]
+27.0 +20.2 66 +33 +33 очень
душно
1004.9 998.4 1
00 16.05 С 2 4000 м 6/3 1200 м
[Sc Ac trans]
+25.0 +19.6 72 +30 +30 душно 1004.4 998.5 1
03 16.05 СЗ 1 4000 м 4/0
[Ac trans]
+27.0 +20.2 66 +33 +38 очень
душно
1005.8 999.9 +24.0
06 16.05 СВ 1 4000 м 4/4 1200 м
[St]
+32.0 +20.0 49 +38 +52 опасность
солнечного
удара
1007.4 1001.0
09 16.05 С 3 4000 м ясно +35.0 +19.3 40 +40 +56 опасность
солнечного
удара
1006.4 1000.1
12 16.05 С 3 4000 м 5/5
[Cb calv Ac cuf]
+36.0 +19.3 38 +41 +43 опасность
перегрева
1004.1 998.4
15 16.05 ЮЗ 2 4000 м слаб. морось 9/5 1200 м
[Sc Ac trans]
+28.0 +17.9 54 +32 +32 душно 1006.4 999.9 0.9
18 16.05 Ю 2 4000 м 8/4 1200 м
[Sc Ac trans]
+25.0 +17.9 65 +29 +29 душно 1007.3 1000.7
21 16.05 ЮВ 2 4000 м 6/3 1200 м
[Sc Ac trans]
+23.5 +18.0 71 +28 +28 душно 1007.5 1000.9
00 17.05 ЮВ 1 4000 м 8/4 1200 м
[Sc Ac trans]
+22.0 +18.0 78 +27 +27 душно 1006.7 1000.7
03 17.05 ЮВ 1 4000 м 6/3 1200 м
[Sc Ac trans]
+23.5 +18.0 71 +28 +31 душно 1007.2 1001.2 +21.5
06 17.05 ЮВ 1 4000 м ясно +31.0 +19.7 51 +37 +60 опасность
солнечного
удара
1007.8 1001.4
09 17.05 Ю 2 4000 м 3/0
[Ac trans]
+35.5 +19.0 38 +40 +56 опасность
солнечного
удара
1006.2 999.9
12 17.05 Ю 3 4000 м ясно +36.5 +18.4 35 +41 +45 опасность
перегрева
1003.6 998.0 +37.0
15 17.05 Ю 1 4000 м 6/3 1200 м
[St Ac trans]
+31.0 +19.7 51 +37 +37 очень
душно
1004.2 997.8
18 17.05 Ю 1 4000 м 3/0
[Ac trans]
+29.0 +19.9 58 +35 +35 очень
душно
1005.2 998.7
21 17.05 штиль 0 4000 м ясно +27.0 +20.2 66 +33 +33 очень
душно
1005.2 998.7
00 18.05 Ю 1 4000 м ясно +24.5 +18.2 68 +29 +29 душно 1004.0 998.1
03 18.05 Ю 1 4000 м ясно +27.5 +18.2 57 +32 +38 очень
душно
1005.1 999.2 +22.0
06 18.05 СВ 3 4000 м ясно +38.0 +16.4 28 +40 +56 опасность
солнечного
удара
1006.0 999.7
09 18.05 В 2 4000 м 3/3 1200 м
[St]
+39.5 +16.5 26 +42 +55 опасность
перегрева
1004.6 998.4
12 18.05 ЮВ 2 4000 м 4/4 1200 м
[St]
+39.0 +15.7 25 +40 +43 очень
душно
1003.5 997.9 +40.5
15 18.05 штиль 0 4000 м 6/3 1200 м
[Sc Ac trans]
+34.5 +18.6 39 +39 +39 очень
душно
1004.1 997.8
18 18.05 ЮВ 1 4000 м 4/0
[Ac trans]
+30.0 +18.5 50 +35 +35 очень
душно
1005.1 998.7
21 18.05 штиль 0 4000 м ясно +27.0 +19.3 63 +33 +33 очень
душно
1004.8 998.3
00 19.05 штиль 0 4000 м ясно +25.0 +19.4 71 +30 +30 душно 1004.0 998.0
03 19.05 ЮВ 1 4000 м ясно +29.0 +19.9 58 +35 +41 очень
душно
1004.4 998.6 +23.5
06 19.05 Ю 1 4000 м 5/0
[Ac trans]
+36.5 +19.4 37 +42 +57 опасность
перегрева
1004.9 998.6
09 19.05 ЮВ 2 4000 м ясно +40.0 +18.3 28 +43 +62 опасность
перегрева
1004.2 998.0
12 19.05 ЮВ 2 4000 м 4/0
[Ac trans]
+40.0 +18.3 28 +43 +47 опасность
перегрева
1002.3 996.8 +41.5
15 19.05 штиль 0 4000 м 9/4 1200 м
[St Ac trans]
+36.0 +18.7 36 +40 +40 очень
душно
1003.1 996.8
18 19.05 штиль 0 4000 м 8/4 1200 м
[St Ac trans]
+32.0 +19.1 46 +37 +37 очень
душно
1005.1 998.7
21 19.05 штиль 0 4000 м 3/0
[Ac trans]
+29.5 +18.8 53 +35 +35 очень
душно
1005.5 999.0
00 20.05 ЮВ 1 4000 м ясно +25.0 +17.9 65 +29 +29 душно 1004.5 998.6
03 20.05 штиль 0 4000 м ясно +30.0 +18.5 50 +35 +42 очень
душно
1006.0 1000.2 +23.0
06 20.05 СВ 2 4000 м ясно +36.0 +19.7 39 +42 +61 опасность
перегрева
1006.8 1000.5
09 20.05 СВ 2 4000 м ясно +39.5 +19.6 32 +45 +63 опасность
перегрева
1006.1 999.9
12 20.05 В 1 4000 м 4/0
[Ac trans]
+39.5 +18.6 30 +43 +48 опасность
перегрева
1003.9 998.4 +41.0
00 21.05 штиль 0 4000 м ясно +26.0 +19.1 66 +31 +31 очень
душно
1005.3 999.4

 

Местоположение метеостанции Мохенджо-Даро (Пакистан): широта 27.32 долгота 68.13 высота над уровнем моря 57 м.

В архиве по умолчанию представлена погода в Мохенджо-Даро за последнюю неделю. Архивные данные за месяц целиком и за предыдущие месяцы, начиная с января 2011 года, Вы можете получить, выбрав интересующий диапазон дат из раскрывающегося списка и нажав кнопку "Ввод!".


*Определитесь, кто Вы:
робот инопланетянин человек

Внимание! Время в таблицах - всемирное. Для получения местного времени необходимо прибавить поправку, которая равна 5 ч.

Смотрите также архив погоды в соседних городах и на ближайших метеорологических станциях:

Погода в Ларкане (Пакистан) (26 км)
Погода в Пад Идан (Пакистан) (52 км)
Погода в Суккуре (Пакистан) (77 км)
Погода в Рохри (Пакистан) (85 км)
Погода в Джейкобабаде (Пакистан) (114 км)
Погода в Навабшахе (Пакистан) (121 км)
Погода в Даду (Пакистан) (152 км)
Погода в Хуздаре (Пакистан) (158 км)
Погода в Мир Пур Кхас (Пакистан) (217 км)
Погода в Хайдарабате (Пакистан) (218 км)

Пояснения к столбцам:

Ветер - указаны скорость ветра в м/с - средняя за 10 мин, порывы в срок и между сроками (в фигурных скобках) и направление, откуда дует ветер: С - северный, СВ - северо-восточный, В - восточный, ЮВ - юго-восточный, Ю - южный, ЮЗ - юго-западный, З - западный, СЗ - северо-западный.
Видимость - горизонтальная дальность видимости в метрах или километрах. При видимости от 1 до 10 км при отсутствии осадков обычно наблюдается дымка, при ухудшении видимости до 1 км и менее - туман. В сухую погоду видимость может ухудшаться дымом, пылью или мглою.
Явления - указаны атмосферные явления, наблюдавшиеся в срок или в последний час перед сроком; фигурными скобками обозначены явления, наблюдавшиеся между сроками (за 1-3 часа до срока); квадратными скобками обозначены град или гололедные отложения с указанием их диаметра в мм.
Облачность - указаны через наклонную черту общая и нижняя облачность в баллах и высота нижней границы облаков в метрах; квадратными скобками обозначены формы облаков: Ci - перистые, Cs - перисто-слоистые, Cc - перисто-кучевые, Ac - высококучевые, As - высокослоистые, Sc - слоисто-кучевые, Ns - слоисто-дождевые, Cu - кучевые, Cb - кучево-дождевые. Подробнее классификацию облаков см. в Атласе облаков (PDF).
T - Температура воздуха - температура, измеренная на высоте 2 м над землей.
Td - Температура точки росы - температура, при понижении до которой содержащийся в воздухе водяной пар достигнет насыщения.
f - Относительная влажность воздуха - влажноcть воздуха, измеренная на высоте 2 м над землей.
Te - Эффективная температура - температура, которую ощущает одетый по сезону человек в тени. Характеристика душности погоды. При расчете учитывается влияние влажности воздуха и скорости ветра на теплоощущения человека.
Tes - Эффективная температура на солнце - температура, которую ощущает человек, с поправкой на солнечный нагрев. Характеристика знойности погоды. Зависит от высоты солнца над горизонтом, облачности и скорости ветра. Ночью, в пасмурную погоду, а также при ветре 12 м/с и более поправка равна нулю.
P - Атмосферное давление - приведенное к уровню моря атмосферное давление.
Po - Атмосферное давление - измеренное на уровне метеостанции атмосферное давление.
Tmin - Минимальная температура - минимум температуры воздуха на высоте 2 м над землей.
Tmax - Максимальная температура - максимум температуры воздуха на высоте 2 м над землей.
R - Количество осадков - Количество выпавших осадков за период времени, мм. При наведении курсора мыши на число - период времени, за который выпало указанное количество осадков.
R24 - Количество осадков - Количество выпавших осадков за 24 часа, мм.
S - Снежный покров - Высота снежного покрова, см. При наведении курсора мыши на число - состояние снежного покрова и степень покрытия местности в баллах.